Regional Weather Roundup
Issued by NWS

Home | Current Version | Previous Version | Text Only | Print | Product List | Glossary Off
Versions: 1 2 3 4 5 6 7 8 9 10 11 12 13 14 15 16 17 18 19 20 21 22 23 24 25 26 27 28 29 30 31 32 33 34 35 36 37 38 39 40 41 42 43 44 45 46 47 48 49 50

000
ASUS43 KIND 281909
RWRIN

WEATHER ROUNDUP FOR INDIANA
NATIONAL WEATHER SERVICE INDIANAPOLIS IN
300 PM EDT SAT MAR 28 2015

NOTE: "FAIR" INDICATES FEW OR NO CLOUDS BELOW 12,000 FEET WITH NO
SIGNIFICANT WEATHER AND/OR OBSTRUCTIONS TO VISIBILITY.

* - STATION DOES NOT REPORT WEATHER SUCH AS PRECIPITATION OR FOG.

+ - STATION NOT QUALITY CONTROLLED BY THE NATIONAL WEATHER SERVICE.
    USE DATA WITH CAUTION...ESPECIALLY DEWPOINT AND RELATIVE
    HUMIDITY OBSERVATIONS.

INZ001>003-010>013-019-020-282000-
NORTHWEST INDIANA

CITY           SKY/WX    TMP DP  RH WIND       PRES   REMARKS
KNOX *+          N/A     34 -27   6 CALM      30.31S
LA PORTE +     SUNNY     36   9  32 N3        30.32S
MICHIGAN CITY+ SUNNY     30  10  43 N9        30.34S WCI  22
MONTICELLO +   SUNNY     33  11  40 CALM      30.32S
RENSSELAER +   SUNNY     34  12  40 CALM      30.32F
VALPARAISO     SUNNY     35   7  31 NE9       30.31F WCI  28

$$

LMZ046-743>745-282000-
SOUTHERN LAKE MICHIGAN

STATION/POSITION TIME  TEMP WIND        PRES
                       AIR  DIR/SP/G
                 (UTC) (F)  (DEG/KT/KT) (MB)
BURNS HARBOR     1900   25  360/  6/ 10 1028.1S
MICHIGAN CITY    1900   26  330/  9/ 10   N/A

$$

INZ004-005-014>016-021>024-282000-
NORTH CENTRAL INDIANA

CITY           SKY/WX    TMP DP  RH WIND       PRES   REMARKS
GOSHEN         SUNNY     33   5  30 CALM      30.29F
LOGANSPORT +   SUNNY     32  10  40 S5        30.32F WCI  27
PERU/GRISSOM   SUNNY     32   8  36 SE6       30.29F WCI  26
ROCHESTER +    SUNNY     36  10  35 CALM      30.31F
SOUTH BEND     SUNNY     34   5  29 SW3       30.31F
WARSAW +       SUNNY     32  10  40 CALM      30.29F

$$

INZ006>009-017-018-025>027-282000-
NORTHEAST INDIANA

CITY           SKY/WX    TMP DP  RH WIND       PRES   REMARKS
ANGOLA *+      SUNNY     30   9  40 VRB5      30.27F WCI  25
AUBURN +       SUNNY     34   9  35 NW7       30.29F WCI  28
FORT WAYNE     MOSUNNY   32   7  35 CALM      30.30F
HUNTINGTON +   SUNNY     32   7  34 N5        30.30F WCI  28

$$

INZ028-029-035-036-043>045-051>053-282000-
WEST CENTRAL INDIANA

CITY           SKY/WX    TMP DP  RH WIND       PRES   REMARKS
CRAWFORDSVL +  SUNNY     32   6  33 NE3       30.31S
GREENCASTLE +  SUNNY     34  10  37 NE3       30.31S
LAFAYETTE      SUNNY     34   9  35 CALM      30.32F
TERRE HAUTE    SUNNY     36  16  44 W5        30.32F

$$

INZ030>032-037>040-046>048-054>057-064-065-282000-
CENTRAL INDIANA

CITY           SKY/WX    TMP DP  RH WIND       PRES   REMARKS
ANDERSON       SUNNY     32  10  40 NW6       30.30F WCI  26
CP ATTERBURY + SUNNY     36  14  41 E5        30.31F
COLUMBUS       SUNNY     34  10  37 NE6       30.31F WCI  29
FISHERS *+     SUNNY     32  16  51 CALM      30.30F
FRANKFORT +    SUNNY     34  15  45 N3        30.32F
GREENWOOD *+   SUNNY     34  10  37 W3        30.30F
INDIANAPOLIS   SUNNY     36   9  32 VRB5      30.28F
-EAGLE CREEK   SUNNY     34  12  40 NW6       30.29F WCI  29
KOKOMO *+        N/A     34  12  40 N6        30.31F WCI  29
MARION +       SUNNY     32  10  40 N5        30.31S WCI  27
MT COMFORT *+  SUNNY     34   0  23 CALM      30.30F
SHELBYVILLE    SUNNY     35  14  42 NW5       30.29F WCI  31
ZIONSVILLE +   SUNNY     33  13  43 E3        30.30F

$$

INZ033-034-041-042-049-050-058-059-282000-
EAST CENTRAL INDIANA

CITY           SKY/WX    TMP DP  RH WIND       PRES   REMARKS
MUNCIE         SUNNY     32  14  47 N8        30.29F WCI  25

$$

INZ060-061-067>069-081>083-085>088-282000-
SOUTHWEST INDIANA

CITY           SKY/WX    TMP DP  RH WIND       PRES   REMARKS
EVANSVILLE     SUNNY     41  20  43 N5        30.33F
HUNTINGBURG *+ SUNNY     37  16  41 N6        30.32S
WASHINGTON +   SUNNY     35  11  38 CALM      30.32F

$$

INZ062-063-066-070>080-084-089>092-282000-
SOUTH CENTRAL AND SOUTHEAST INDIANA

CITY           SKY/WX    TMP DP  RH WIND       PRES   REMARKS
BEDFORD +      SUNNY     37   9  30 CALM      30.29F
BLOOMINGTON    SUNNY     36  12  37 VRB5      30.29F
NORTH VERNON + SUNNY     34  14  44 N6        30.30F WCI  29
SEYMOUR +      SUNNY     37  18  44 N5        30.31F

$$



USA.gov is the U.S. government's official web portal to all federal, state and local government web resources and services.